Location: Central Coast NSW, Australia
(33.2407°S, 151.4316°E)
Time: 05:55:24
(UTC+11:00)

Envisat - Visible Passes

Search period start: 24 January 2019 00:00
Search period end: 03 February 2019 00:00
Orbit: 764 x 766 km, 98.2° (Epoch: 23 January)

Date Brightness Start Highest point End Pass type
(mag) Time Alt. Az. Time Alt. Az. Time Alt. Az.
24 Jan 4.9 21:11:29 10° S 21:16:02 32° WSW 21:20:32 10° NW visible
25 Jan 3.3 20:34:19 10° S 20:39:28 78° WSW 20:44:33 10° NNW visible
26 Jan 5.9 21:37:53 10° SSW 21:41:20 18° WSW 21:44:45 10° WNW visible
27 Jan 4.4 21:00:05 10° S 21:04:54 42° WSW 21:09:40 10° NW visible
28 Jan 3.0 20:23:07 10° SSE 20:28:17 82° ENE 20:33:23 10° N visible
29 Jan 5.5 21:26:15 10° SSW 21:30:14 23° WSW 21:34:12 10° WNW visible
30 Jan 3.9 20:48:45 10° S 20:53:45 54° WSW 20:58:42 10° NNW visible
31 Jan 6.1 21:53:13 10° SW 21:55:28 13° WSW 21:57:43 10° W visible
01 Feb 5.1 21:14:43 10° S 21:19:08 30° WSW 21:23:30 10° NW visible
02 Feb 3.4 20:37:28 10° S 20:42:35 70° WSW 20:47:38 10° NNW visible
